Precipitable_Water
0.84 0.79 0.81 0.80 0.77 0.71 0.67 0.75 0.87 0.96 1.05 1.12 1.15 1.17 1.26 1.32 1.32 1.27 1.20 1.11 1.08 1.11 1.17 1.20 1.28 1.31 1.26 1.21 1.25 1.23 1.16 1.00 0.91 0.85 0.78 0.79 0.89 0.95 0.99 1.11 1.12 1.14 1.22 1.22 1.16 1.02 0.98 0.97 0.91 0.92 0.92 0.89 0.90 0.94 1.00 1.01 1.00 0.91 0.75 0.71 0.66 0.69 0.68 0.76 0.70 0.65 0.66 0.62 0.65 0.67 0.61 0.50 0.43 0.45 0.46 0.49 0.43 0.39 0.42 0.38 0.49 0.48 0.45 0.52 0.65 0.74 0.77 0.80
0.84 0.80 0.79 0.81 0.83 0.75 0.70 0.69 0.78 0.89 0.99 1.05 1.10 1.13 1.18 1.25 1.32 1.30 1.23 1.15 1.11 1.12 1.16 1.23 1.31 1.38 1.32 1.22 1.20 1.20 1.09 0.97 0.81 0.80 0.74 0.90 0.93 0.96 0.98 1.00 1.10 1.13 1.12 1.10 1.08 0.99 0.93 0.94 0.92 0.90 0.85 0.82 0.92 0.92 0.99 0.91 1.00 0.84 0.75 0.71 0.66 0.73 0.73 0.76 0.75 0.72 0.66 0.63 0.67 0.67 0.67 0.59 0.47 0.45 0.48 0.42 0.39 0.36 0.36 0.38 0.43 0.44 0.47 0.51 0.63 0.72 0.71 0.73
0.81 0.82 0.81 0.83 0.83 0.80 0.73 0.70 0.74 0.84 0.96 1.02 1.05 1.10 1.13 1.17 1.28 1.33 1.26 1.18 1.14 1.14 1.17 1.24 1.34 1.39 1.37 1.29 1.23 1.18 1.07 0.86 0.78 0.65 0.77 0.94 0.97 0.94 0.95 0.95 1.02 1.11 1.02 1.03 1.09 1.03 0.96 0.95 0.94 0.87 0.84 0.80 0.87 0.84 0.94 0.86 0.90 0.84 0.73 0.63 0.68 0.81 0.70 0.75 0.76 0.73 0.71 0.71 0.67 0.68 0.68 0.64 0.55 0.46 0.50 0.41 0.42 0.41 0.34 0.35 0.38 0.41 0.41 0.46 0.57 0.65 0.67 0.66
0.80 0.82 0.85 0.83 0.82 0.82 0.77 0.71 0.71 0.75 0.88 0.97 1.01 1.05 1.07 1.13 1.18 1.32 1.30 1.21 1.15 1.15 1.15 1.22 1.33 1.40 1.40 1.36 1.31 1.19 1.00 0.77 0.59 0.63 0.85 0.93 0.93 0.91 0.92 0.91 0.96 1.06 1.02 1.02 1.09 1.05 1.06 0.97 0.98 0.85 0.81 0.79 0.82 0.88 0.82 0.86 0.78 0.77 0.71 0.61 0.67 0.79 0.75 0.75 0.76 0.77 0.77 0.75 0.71 0.71 0.70 0.66 0.62 0.52 0.43 0.43 0.39 0.40 0.41 0.41 0.39 0.41 0.46 0.47 0.53 0.63 0.62 0.60
0.79 0.81 0.82 0.83 0.84 0.82 0.80 0.74 0.71 0.71 0.75 0.85 0.93 0.95 0.97 1.06 1.14 1.28 1.31 1.26 1.16 1.17 1.14 1.20 1.32 1.43 1.41 1.39 1.31 1.17 0.82 0.55 0.50 0.75 0.84 0.92 0.90 0.88 0.88 0.90 0.93 1.00 0.97 1.00 1.04 1.03 0.98 0.90 0.92 0.87 0.80 0.74 0.79 0.79 0.79 0.84 0.85 0.77 0.67 0.71 0.74 0.75 0.72 0.76 0.79 0.81 0.81 0.82 0.75 0.73 0.68 0.66 0.70 0.61 0.47 0.40 0.36 0.37 0.39 0.38 0.37 0.35 0.37 0.48 0.49 0.60 0.60 0.57
0.80 0.81 0.80 0.82 0.82 0.84 0.80 0.76 0.74 0.70 0.70 0.73 0.79 0.84 0.93 1.04 1.10 1.21 1.32 1.30 1.18 1.17 1.19 1.20 1.32 1.45 1.49 1.42 1.35 1.05 0.75 0.31 0.64 0.67 0.87 0.90 0.88 0.86 0.86 0.88 0.92 0.97 0.93 0.94 0.94 0.95 0.86 0.87 0.87 0.76 0.76 0.75 0.74 0.68 0.74 0.81 0.83 0.66 0.68 0.68 0.72 0.76 0.72 0.69 0.75 0.78 0.81 0.81 0.78 0.72 0.73 0.74 0.70 0.65 0.59 0.44 0.38 0.43 0.45 0.44 0.40 0.34 0.34 0.48 0.52 0.56 0.55 0.54
0.81 0.81 0.78 0.78 0.79 0.81 0.81 0.78 0.76 0.76 0.69 0.69 0.75 0.81 0.92 1.00 1.05 1.15 1.27 1.33 1.24 1.16 1.20 1.22 1.28 1.39 1.46 1.49 1.33 1.03 0.64 0.58 0.78 0.81 0.82 0.87 0.86 0.85 0.84 0.86 0.91 0.93 0.89 0.84 0.86 0.82 0.80 0.79 0.78 0.73 0.74 0.74 0.74 0.72 0.74 0.78 0.79 0.73 0.64 0.65 0.68 0.75 0.65 0.64 0.67 0.72 0.74 0.79 0.77 0.79 0.79 0.72 0.74 0.67 0.70 0.55 0.43 0.45 0.48 0.47 0.43 0.38 0.35 0.45 0.52 0.51 0.53 0.49
0.87 0.81 0.77 0.76 0.75 0.77 0.79 0.79 0.77 0.78 0.76 0.67 0.73 0.82 0.89 0.96 1.05 1.15 1.25 1.33 1.29 1.17 1.20 1.28 1.31 1.35 1.43 1.36 1.21 0.96 0.72 0.59 0.81 0.89 0.88 0.86 0.84 0.85 0.84 0.84 0.86 0.88 0.83 0.78 0.78 0.74 0.77 0.73 0.70 0.74 0.68 0.64 0.71 0.70 0.76 0.75 0.76 0.66 0.65 0.66 0.65 0.68 0.59 0.63 0.67 0.70 0.71 0.75 0.80 0.79 0.75 0.76 0.78 0.75 0.76 0.68 0.57 0.53 0.52 0.51 0.46 0.41 0.38 0.47 0.55 0.52 0.52 0.52
0.93 0.88 0.80 0.78 0.75 0.74 0.76 0.77 0.79 0.80 0.80 0.72 0.70 0.78 0.85 0.91 1.01 1.12 1.22 1.34 1.34 1.23 1.15 1.27 1.35 1.38 1.40 1.26 1.07 0.94 0.76 0.79 0.92 0.93 0.88 0.84 0.83 0.83 0.82 0.74 0.82 0.81 0.79 0.81 0.81 0.75 0.71 0.68 0.73 0.73 0.58 0.62 0.74 0.70 0.75 0.71 0.64 0.69 0.65 0.70 0.62 0.58 0.59 0.64 0.68 0.71 0.73 0.76 0.79 0.79 0.78 0.82 0.83 0.82 0.76 0.78 0.73 0.64 0.56 0.51 0.47 0.45 0.41 0.39 0.52 0.54 0.50 0.51
0.92 0.90 0.84 0.81 0.78 0.75 0.75 0.75 0.77 0.80 0.80 0.79 0.71 0.73 0.81 0.86 0.97 1.08 1.17 1.26 1.37 1.30 1.18 1.21 1.34 1.37 1.28 1.12 1.00 0.81 0.92 1.12 0.98 0.96 0.90 0.88 0.83 0.80 0.78 0.78 0.77 0.76 0.73 0.76 0.77 0.73 0.66 0.66 0.71 0.76 0.74 0.69 0.75 0.74 0.80 0.73 0.66 0.71 0.69 0.71 0.62 0.59 0.57 0.62 0.66 0.72 0.76 0.78 0.82 0.78 0.80 0.83 0.85 0.80 0.71 0.79 0.77 0.73 0.60 0.49 0.47 0.46 0.44 0.42 0.46 0.52 0.53 0.49
0.82 0.87 0.85 0.83 0.80 0.75 0.74 0.75 0.76 0.79 0.82 0.81 0.76 0.73 0.75 0.82 0.91 1.01 1.13 1.20 1.30 1.33 1.24 1.21 1.31 1.33 1.15 1.09 0.86 0.71 1.20 1.25 1.10 1.02 0.91 0.91 0.84 0.75 0.72 0.76 0.76 0.72 0.71 0.73 0.71 0.73 0.71 0.72 0.78 0.79 0.74 0.64 0.64 0.66 0.78 0.77 0.78 0.69 0.69 0.71 0.64 0.59 0.59 0.60 0.66 0.70 0.73 0.73 0.80 0.80 0.79 0.84 0.87 0.81 0.76 0.83 0.80 0.77 0.69 0.58 0.50 0.48 0.47 0.44 0.46 0.48 0.52 0.51
0.83 0.81 0.84 0.82 0.79 0.75 0.74 0.75 0.76 0.78 0.80 0.80 0.79 0.76 0.75 0.78 0.87 0.98 1.10 1.18 1.26 1.32 1.26 1.25 1.28 1.26 1.19 1.06 0.88 0.90 1.23 1.26 1.26 1.10 1.00 0.92 0.82 0.82 0.82 0.81 0.77 0.73 0.70 0.65 0.69 0.73 0.73 0.76 0.77 0.71 0.55 0.68 0.54 0.64 0.66 0.77 0.75 0.72 0.69 0.60 0.60 0.59 0.54 0.60 0.62 0.67 0.69 0.69 0.79 0.80 0.74 0.73 0.79 0.76 0.84 0.89 0.91 0.86 0.83 0.76 0.64 0.54 0.49 0.47 0.46 0.46 0.49 0.50
0.85 0.82 0.80 0.80 0.79 0.76 0.75 0.76 0.76 0.78 0.79 0.80 0.80 0.78 0.74 0.72 0.79 0.94 1.07 1.14 1.22 1.31 1.29 1.22 1.28 1.26 1.09 0.84 0.93 1.26 1.32 1.35 1.31 1.17 1.06 1.03 0.94 0.93 0.92 0.90 0.82 0.81 0.77 0.71 0.70 0.76 0.80 0.79 0.79 0.63 0.66 0.61 0.57 0.52 0.66 0.74 0.70 0.73 0.71 0.66 0.61 0.58 0.54 0.60 0.66 0.68 0.66 0.68 0.73 0.75 0.53 0.62 0.74 0.83 0.89 0.93 0.91 0.90 0.87 0.84 0.78 0.67 0.55 0.50 0.48 0.46 0.47 0.52
0.85 0.84 0.75 0.75 0.77 0.77 0.75 0.75 0.75 0.77 0.79 0.79 0.81 0.76 0.71 0.68 0.70 0.82 0.95 1.05 1.15 1.27 1.30 1.28 1.22 1.18 1.02 0.81 1.07 1.32 1.40 1.39 1.36 1.16 1.05 1.06 0.96 0.88 0.95 0.95 0.88 0.84 0.85 0.84 0.83 0.82 0.79 0.82 0.78 0.73 0.75 0.62 0.56 0.71 0.64 0.66 0.67 0.56 0.64 0.68 0.60 0.55 0.50 0.61 0.62 0.65 0.60 0.66 0.68 0.70 0.49 0.57 0.71 0.81 0.88 0.90 0.90 0.87 0.85 0.87 0.86 0.77 0.66 0.55 0.50 0.49 0.48 0.50
0.84 0.84 0.76 0.72 0.74 0.76 0.75 0.72 0.74 0.76 0.79 0.81 0.82 0.77 0.73 0.70 0.68 0.76 0.92 1.04 1.13 1.25 1.32 1.29 1.21 1.03 0.88 0.90 1.17 1.38 1.41 1.45 1.28 1.16 1.08 1.00 0.94 0.89 0.88 0.91 0.86 0.85 0.89 0.90 0.85 0.83 0.80 0.79 0.73 0.65 0.61 0.71 0.67 0.59 0.53 0.56 0.60 0.61 0.54 0.50 0.62 0.57 0.56 0.64 0.68 0.65 0.54 0.56 0.65 0.60 0.45 0.49 0.63 0.76 0.85 0.88 0.89 0.88 0.84 0.84 0.84 0.82 0.76 0.65 0.53 0.50 0.51 0.51
0.84 0.83 0.78 0.71 0.71 0.74 0.75 0.73 0.74 0.77 0.79 0.82 0.82 0.78 0.75 0.75 0.75 0.77 0.88 0.98 1.11 1.21 1.38 1.11 1.08 0.96 0.86 0.75 0.99 1.37 1.29 1.12 1.18 1.28 1.18 1.07 1.00 0.86 0.90 0.88 0.90 0.91 0.87 0.86 0.92 0.85 0.76 0.75 0.62 0.64 0.63 0.64 0.57 0.51 0.47 0.48 0.49 0.55 0.52 0.51 0.54 0.59 0.57 0.60 0.67 0.69 0.66 0.58 0.60 0.56 0.42 0.49 0.54 0.69 0.76 0.82 0.84 0.84 0.83 0.83 0.85 0.85 0.82 0.76 0.64 0.54 0.52 0.54
0.84 0.83 0.79 0.72 0.68 0.71 0.74 0.74 0.76 0.78 0.82 0.86 0.86 0.82 0.78 0.77 0.74 0.75 0.79 0.89 0.99 1.18 1.23 1.04 1.09 1.07 0.67 0.99 1.26 0.96 1.01 1.16 1.35 1.29 1.22 1.13 1.04 0.99 0.94 0.88 0.82 0.85 0.86 0.83 0.83 0.79 0.73 0.61 0.66 0.61 0.66 0.53 0.54 0.51 0.40 0.36 0.36 0.42 0.52 0.50 0.59 0.57 0.59 0.54 0.66 0.70 0.68 0.59 0.48 0.54 0.48 0.46 0.54 0.54 0.62 0.70 0.76 0.77 0.76 0.78 0.81 0.84 0.85 0.81 0.76 0.64 0.55 0.53
0.84 0.84 0.81 0.74 0.69 0.69 0.73 0.76 0.77 0.81 0.88 0.88 0.90 0.82 0.76 0.76 0.77 0.78 0.77 0.87 0.99 1.06 1.16 1.25 1.12 0.93 0.77 0.97 0.74 0.82 1.02 1.11 1.23 1.31 1.26 1.19 1.08 1.02 0.95 0.82 0.88 0.83 0.80 0.71 0.74 0.62 0.68 0.54 0.58 0.44 0.49 0.50 0.49 0.45 0.34 0.24 0.30 0.35 0.42 0.48 0.54 0.62 0.64 0.60 0.57 0.60 0.64 0.60 0.50 0.49 0.47 0.45 0.48 0.56 0.60 0.61 0.70 0.72 0.72 0.73 0.75 0.76 0.79 0.78 0.77 0.75 0.64 0.55
0.83 0.84 0.81 0.75 0.69 0.70 0.73 0.75 0.78 0.81 0.87 0.88 0.92 0.85 0.82 0.81 0.82 0.78 0.69 0.80 0.74 0.72 0.69 0.78 0.82 0.59 0.54 0.71 0.89 0.91 0.97 1.18 1.31 1.31 1.23 1.19 1.11 1.05 1.02 0.97 0.89 0.73 0.65 0.59 0.58 0.60 0.63 0.56 0.55 0.45 0.36 0.40 0.39 0.40 0.35 0.39 0.44 0.41 0.46 0.51 0.56 0.55 0.59 0.60 0.66 0.65 0.62 0.52 0.49 0.50 0.41 0.40 0.43 0.47 0.54 0.61 0.65 0.64 0.65 0.67 0.69 0.72 0.76 0.76 0.75 0.77 0.72 0.62
0.82 0.83 0.80 0.75 0.71 0.69 0.71 0.74 0.78 0.82 0.86 0.84 0.80 0.76 0.74 0.60 0.56 0.51 0.66 0.68 0.61 0.66 0.71 0.81 0.84 0.79 0.82 0.87 0.83 0.99 1.14 1.27 1.10 1.22 1.28 1.27 1.08 1.01 1.00 0.96 0.84 0.77 0.61 0.49 0.56 0.57 0.61 0.41 0.36 0.33 0.32 0.37 0.41 0.44 0.45 0.50 0.51 0.52 0.56 0.58 0.59 0.60 0.63 0.69 0.68 0.65 0.65 0.54 0.49 0.51 0.49 0.46 0.44 0.45 0.49 0.56 0.59 0.60 0.61 0.62 0.65 0.69 0.71 0.76 0.76 0.76 0.77 0.69
0.80 0.80 0.77 0.75 0.73 0.70 0.72 0.76 0.80 0.80 0.81 0.83 0.74 0.59 0.45 0.45 0.34 0.33 0.44 0.51 0.61 0.72 0.72 0.83 0.87 0.79 0.77 0.89 0.93 0.89 0.81 1.03 1.18 1.15 1.23 1.37 1.21 1.00 0.89 0.88 0.75 0.62 0.61 0.59 0.52 0.68 0.58 0.41 0.36 0.36 0.40 0.42 0.43 0.47 0.50 0.51 0.57 0.54 0.58 0.59 0.58 0.61 0.58 0.66 0.63 0.63 0.64 0.53 0.47 0.52 0.47 0.43 0.41 0.42 0.45 0.51 0.55 0.53 0.55 0.55 0.57 0.62 0.67 0.71 0.76 0.78 0.77 0.78
0.80 0.78 0.76 0.76 0.76 0.76 0.78 0.81 0.80 0.82 0.85 0.79 0.70 0.55 0.54 0.51 0.50 0.49 0.39 0.32 0.54 0.66 0.73 0.80 0.92 0.81 0.93 0.93 0.97 0.99 0.90 0.85 0.93 1.11 1.27 1.30 1.14 0.93 0.88 0.81 0.68 0.54 0.57 0.64 0.63 0.52 0.45 0.37 0.36 0.42 0.49 0.50 0.52 0.52 0.53 0.52 0.54 0.60 0.60 0.61 0.59 0.59 0.65 0.69 0.63 0.61 0.59 0.55 0.46 0.53 0.45 0.41 0.41 0.41 0.45 0.45 0.46 0.48 0.51 0.51 0.51 0.53 0.57 0.63 0.70 0.77 0.80 0.81
0.82 0.79 0.79 0.77 0.79 0.77 0.78 0.83 0.78 0.85 0.82 0.70 0.61 0.59 0.54 0.62 0.65 0.63 0.56 0.45 0.43 0.67 0.68 0.71 0.74 0.82 0.82 0.97 0.97 0.97 0.80 0.79 0.76 0.93 1.11 1.21 1.06 0.98 0.90 0.76 0.67 0.61 0.61 0.62 0.48 0.45 0.37 0.37 0.41 0.50 0.52 0.52 0.50 0.54 0.55 0.57 0.60 0.60 0.62 0.59 0.55 0.62 0.60 0.53 0.59 0.60 0.59 0.54 0.49 0.53 0.44 0.39 0.43 0.41 0.39 0.40 0.42 0.43 0.46 0.47 0.46 0.48 0.51 0.56 0.64 0.73 0.76 0.80
0.82 0.80 0.79 0.77 0.78 0.80 0.83 0.86 0.86 0.81 0.74 0.70 0.59 0.56 0.67 0.69 0.65 0.61 0.47 0.32 0.34 0.50 0.63 0.72 0.76 0.81 0.81 0.80 0.98 0.85 0.74 0.84 0.89 0.87 1.17 1.14 0.96 1.06 0.92 0.81 0.67 0.65 0.58 0.58 0.51 0.44 0.35 0.38 0.52 0.53 0.54 0.54 0.51 0.54 0.56 0.55 0.53 0.61 0.63 0.61 0.59 0.61 0.62 0.60 0.55 0.59 0.60 0.58 0.56 0.52 0.42 0.36 0.37 0.28 0.25 0.29 0.37 0.37 0.35 0.34 0.35 0.40 0.47 0.56 0.65 0.72 0.74 0.76
0.78 0.78 0.79 0.76 0.80 0.81 0.81 0.86 0.75 0.77 0.77 0.73 0.66 0.74 0.73 0.72 0.69 0.64 0.44 0.36 0.34 0.40 0.68 0.63 0.74 0.80 0.89 1.11 1.07 0.78 0.81 0.86 0.91 1.01 1.11 1.13 1.02 0.97 0.89 0.92 0.76 0.62 0.61 0.60 0.55 0.50 0.46 0.58 0.58 0.51 0.52 0.55 0.53 0.52 0.55 0.56 0.51 0.56 0.63 0.63 0.63 0.65 0.63 0.62 0.58 0.54 0.50 0.47 0.53 0.50 0.32 0.26 0.30 0.24 0.21 0.25 0.30 0.31 0.34 0.34 0.34 0.36 0.40 0.49 0.58 0.66 0.70 0.71
0.79 0.77 0.79 0.79 0.81 0.82 0.85 0.71 0.69 0.74 0.74 0.67 0.67 0.75 0.76 0.71 0.71 0.66 0.45 0.28 0.20 0.34 0.53 0.40 0.70 0.61 0.97 0.84 0.97 0.88 0.85 0.68 0.88 0.98 1.13 1.14 1.23 1.02 0.94 0.84 0.83 0.62 0.65 0.61 0.57 0.53 0.49 0.62 0.56 0.53 0.54 0.53 0.53 0.51 0.55 0.60 0.52 0.52 0.55 0.70 0.70 0.67 0.64 0.62 0.59 0.55 0.44 0.38 0.48 0.55 0.32 0.22 0.31 0.25 0.26 0.31 0.32 0.33 0.37 0.36 0.36 0.35 0.35 0.38 0.44 0.53 0.60 0.62
0.77 0.75 0.75 0.78 0.79 0.84 0.67 0.57 0.75 0.77 0.63 0.65 0.77 0.77 0.76 0.73 0.75 0.68 0.37 0.24 0.19 0.36 0.30 0.53 0.52 0.60 0.81 0.83 0.87 0.89 0.52 0.59 0.92 0.97 1.00 1.17 1.02 1.22 0.85 0.79 0.82 0.79 0.78 0.73 0.64 0.53 0.62 0.62 0.61 0.59 0.55 0.52 0.50 0.48 0.57 0.60 0.54 0.49 0.66 0.71 0.70 0.64 0.61 0.60 0.59 0.54 0.48 0.56 0.56 0.54 0.46 0.29 0.25 0.27 0.25 0.23 0.23 0.26 0.29 0.32 0.34 0.34 0.33 0.34 0.38 0.45 0.51 0.55
0.78 0.80 0.80 0.79 0.77 0.83 0.67 0.70 0.71 0.65 0.64 0.73 0.82 0.83 0.79 0.75 0.72 0.64 0.35 0.14 0.12 0.39 0.29 0.44 0.50 0.82 0.69 0.83 0.88 0.75 0.73 0.85 0.65 0.81 0.96 1.06 1.14 1.00 0.92 0.80 0.74 0.71 0.75 0.72 0.47 0.56 0.56 0.54 0.57 0.54 0.54 0.52 0.47 0.51 0.58 0.65 0.58 0.57 0.67 0.72 0.66 0.64 0.61 0.61 0.58 0.55 0.52 0.47 0.38 0.45 0.49 0.33 0.25 0.29 0.30 0.25 0.21 0.20 0.20 0.22 0.28 0.33 0.34 0.34 0.36 0.41 0.47 0.52
0.81 0.82 0.83 0.84 0.83 0.84 0.79 0.74 0.66 0.63 0.78 0.84 0.84 0.84 0.79 0.76 0.63 0.41 0.26 0.14 0.37 0.23 0.70 0.31 0.82 0.62 0.65 0.77 0.75 0.78 0.77 0.84 0.60 0.76 0.98 1.04 1.14 1.00 0.78 0.85 0.85 0.82 0.83 0.72 0.53 0.57 0.68 0.63 0.60 0.60 0.54 0.49 0.57 0.62 0.67 0.67 0.57 0.66 0.71 0.70 0.71 0.69 0.64 0.61 0.57 0.54 0.52 0.44 0.31 0.37 0.44 0.29 0.21 0.28 0.26 0.25 0.22 0.20 0.18 0.21 0.24 0.26 0.28 0.32 0.35 0.39 0.45 0.49
0.86 0.87 0.90 0.87 0.88 0.79 0.77 0.80 0.71 0.77 0.86 0.89 0.87 0.83 0.75 0.65 0.51 0.30 0.19 0.12 0.32 0.17 0.39 0.47 0.42 0.42 0.57 0.52 0.63 0.73 0.69 0.76 0.77 0.85 0.92 0.86 0.95 1.05 0.96 1.07 0.87 0.79 0.76 0.83 0.76 0.72 0.74 0.77 0.79 0.70 0.61 0.58 0.59 0.65 0.68 0.68 0.69 0.75 0.69 0.62 0.61 0.59 0.59 0.60 0.57 0.53 0.47 0.34 0.30 0.38 0.42 0.36 0.20 0.24 0.25 0.20 0.18 0.18 0.19 0.22 0.26 0.30 0.33 0.33 0.34 0.37 0.41 0.44
0.86 0.90 0.90 0.91 0.74 0.76 0.73 0.66 0.74 0.85 0.85 0.87 0.81 0.72 0.65 0.52 0.35 0.22 0.14 0.18 0.30 0.34 0.40 0.43 0.37 0.52 0.40 0.44 0.47 0.66 0.68 0.73 0.71 0.77 0.72 0.86 0.81 0.89 0.88 0.79 0.93 0.77 0.73 0.71 0.68 0.73 0.75 0.74 0.72 0.77 0.78 0.75 0.74 0.61 0.71 0.72 0.72 0.67 0.62 0.57 0.52 0.49 0.53 0.50 0.47 0.48 0.32 0.24 0.30 0.37 0.37 0.39 0.21 0.23 0.28 0.30 0.25 0.26 0.26 0.26 0.29 0.31 0.32 0.33 0.34 0.37 0.41 0.43
0.82 0.83 0.86 0.82 0.80 0.79 0.61 0.58 0.77 0.86 0.84 0.82 0.71 0.59 0.50 0.30 0.35 0.21 0.17 0.38 0.18 0.29 0.27 0.32 0.41 0.41 0.41 0.42 0.45 0.54 0.58 0.66 0.72 0.70 0.64 0.67 0.67 0.67 0.70 0.60 0.68 0.52 0.51 0.56 0.54 0.71 0.64 0.65 0.71 0.74 0.84 0.77 0.70 0.63 0.64 0.71 0.67 0.58 0.57 0.52 0.41 0.36 0.37 0.29 0.36 0.28 0.27 0.21 0.31 0.36 0.39 0.34 0.27 0.24 0.31 0.36 0.29 0.28 0.29 0.30 0.30 0.30 0.31 0.36 0.40 0.42 0.43 0.45
0.78 0.80 0.79 0.79 0.76 0.69 0.70 0.78 0.81 0.81 0.83 0.75 0.67 0.55 0.36 0.26 0.18 0.26 0.23 0.23 0.21 0.37 0.29 0.36 0.30 0.38 0.39 0.40 0.40 0.51 0.63 0.54 0.65 0.66 0.69 0.68 0.65 0.68 0.73 0.70 0.71 0.64 0.45 0.57 0.55 0.55 0.59 0.70 0.68 0.70 0.74 0.79 0.73 0.57 0.57 0.53 0.59 0.55 0.47 0.42 0.35 0.29 0.27 0.22 0.25 0.28 0.27 0.30 0.36 0.36 0.43 0.29 0.26 0.28 0.34 0.32 0.28 0.21 0.25 0.29 0.32 0.31 0.31 0.33 0.35 0.39 0.43 0.46
0.80 0.80 0.72 0.75 0.74 0.75 0.78 0.81 0.79 0.85 0.78 0.73 0.58 0.43 0.33 0.22 0.21 0.28 0.23 0.25 0.27 0.42 0.41 0.32 0.33 0.35 0.39 0.34 0.41 0.49 0.47 0.62 0.62 0.60 0.68 0.61 0.63 0.57 0.66 0.72 0.74 0.67 0.64 0.60 0.51 0.51 0.43 0.46 0.60 0.66 0.58 0.75 0.69 0.62 0.57 0.49 0.51 0.52 0.54 0.46 0.36 0.30 0.25 0.19 0.21 0.18 0.18 0.20 0.27 0.35 0.27 0.19 0.16 0.17 0.29 0.33 0.33 0.30 0.31 0.32 0.33 0.33 0.33 0.33 0.35 0.38 0.41 0.45
0.78 0.74 0.73 0.71 0.71 0.75 0.79 0.78 0.76 0.82 0.71 0.62 0.48 0.36 0.23 0.21 0.24 0.22 0.23 0.27 0.35 0.38 0.37 0.44 0.32 0.31 0.32 0.38 0.44 0.49 0.46 0.48 0.63 0.60 0.59 0.58 0.53 0.58 0.58 0.63 0.71 0.73 0.68 0.52 0.58 0.55 0.50 0.48 0.61 0.70 0.69 0.71 0.64 0.68 0.67 0.59 0.55 0.58 0.57 0.54 0.41 0.31 0.33 0.20 0.22 0.20 0.19 0.18 0.19 0.24 0.20 0.24 0.22 0.29 0.31 0.33 0.30 0.25 0.26 0.27 0.29 0.30 0.32 0.33 0.33 0.35 0.40 0.45
0.68 0.67 0.67 0.62 0.63 0.70 0.79 0.79 0.76 0.76 0.63 0.48 0.37 0.29 0.24 0.24 0.22 0.28 0.25 0.32 0.33 0.30 0.36 0.40 0.36 0.29 0.29 0.33 0.44 0.45 0.58 0.48 0.57 0.58 0.55 0.58 0.60 0.56 0.64 0.65 0.65 0.71 0.63 0.52 0.58 0.47 0.52 0.46 0.66 0.69 0.73 0.68 0.69 0.70 0.67 0.65 0.40 0.53 0.53 0.41 0.41 0.47 0.39 0.31 0.29 0.30 0.28 0.23 0.17 0.23 0.20 0.21 0.27 0.27 0.27 0.28 0.28 0.25 0.24 0.25 0.26 0.26 0.27 0.27 0.27 0.29 0.33 0.39
0.57 0.60 0.54 0.58 0.60 0.70 0.75 0.75 0.73 0.69 0.58 0.42 0.31 0.26 0.28 0.29 0.36 0.31 0.33 0.28 0.32 0.32 0.31 0.24 0.30 0.29 0.27 0.28 0.35 0.42 0.48 0.54 0.56 0.54 0.46 0.59 0.52 0.61 0.61 0.65 0.73 0.71 0.74 0.66 0.57 0.63 0.45 0.46 0.64 0.64 0.60 0.72 0.77 0.72 0.69 0.67 0.64 0.55 0.44 0.48 0.55 0.57 0.50 0.36 0.23 0.25 0.22 0.17 0.16 0.21 0.16 0.17 0.19 0.13 0.24 0.24 0.24 0.22 0.21 0.24 0.26 0.26 0.26 0.26 0.27 0.29 0.30 0.32
0.52 0.54 0.57 0.55 0.60 0.68 0.72 0.73 0.70 0.62 0.53 0.39 0.26 0.27 0.36 0.33 0.44 0.43 0.44 0.37 0.38 0.38 0.31 0.26 0.33 0.35 0.29 0.29 0.31 0.38 0.48 0.42 0.47 0.53 0.46 0.53 0.45 0.63 0.61 0.61 0.72 0.72 0.74 0.79 0.62 0.59 0.61 0.45 0.56 0.65 0.64 0.68 0.75 0.74 0.67 0.75 0.74 0.56 0.48 0.60 0.44 0.36 0.33 0.38 0.29 0.18 0.17 0.15 0.14 0.17 0.18 0.20 0.21 0.17 0.21 0.21 0.21 0.22 0.24 0.27 0.26 0.26 0.26 0.26 0.28 0.30 0.32 0.34
0.50 0.49 0.43 0.54 0.64 0.68 0.69 0.68 0.66 0.51 0.44 0.33 0.28 0.27 0.37 0.37 0.46 0.44 0.48 0.44 0.41 0.38 0.30 0.31 0.30 0.33 0.34 0.29 0.33 0.39 0.41 0.35 0.46 0.47 0.44 0.50 0.43 0.56 0.57 0.63 0.61 0.72 0.75 0.75 0.65 0.64 0.63 0.45 0.48 0.64 0.62 0.65 0.68 0.65 0.47 0.55 0.69 0.70 0.66 0.58 0.59 0.46 0.37 0.31 0.30 0.26 0.23 0.17 0.16 0.14 0.17 0.14 0.20 0.21 0.24 0.24 0.24 0.23 0.23 0.23 0.24 0.25 0.25 0.27 0.29 0.29 0.30 0.33
0.42 0.38 0.37 0.55 0.63 0.67 0.71 0.65 0.56 0.46 0.36 0.23 0.26 0.28 0.38 0.35 0.43 0.48 0.49 0.45 0.39 0.37 0.33 0.33 0.35 0.32 0.33 0.34 0.36 0.33 0.43 0.39 0.41 0.46 0.47 0.51 0.47 0.59 0.53 0.65 0.63 0.66 0.74 0.76 0.68 0.71 0.56 0.58 0.40 0.53 0.66 0.64 0.50 0.57 0.50 0.51 0.48 0.53 0.53 0.49 0.50 0.47 0.50 0.44 0.41 0.31 0.25 0.20 0.18 0.16 0.15 0.18 0.22 0.28 0.27 0.26 0.26 0.24 0.24 0.24 0.26 0.27 0.28 0.30 0.31 0.31 0.31 0.33
0.43 0.37 0.38 0.55 0.61 0.70 0.63 0.52 0.44 0.38 0.30 0.30 0.32 0.30 0.34 0.33 0.40 0.42 0.45 0.48 0.46 0.51 0.41 0.36 0.34 0.31 0.36 0.35 0.34 0.41 0.36 0.40 0.43 0.44 0.48 0.50 0.50 0.43 0.60 0.60 0.65 0.62 0.71 0.72 0.68 0.67 0.56 0.53 0.43 0.49 0.51 0.50 0.51 0.58 0.56 0.56 0.56 0.51 0.48 0.45 0.46 0.42 0.38 0.33 0.29 0.40 0.34 0.27 0.21 0.18 0.15 0.18 0.27 0.31 0.32 0.30 0.30 0.30 0.30 0.29 0.29 0.30 0.31 0.30 0.30 0.31 0.32 0.32
0.36 0.28 0.34 0.52 0.59 0.65 0.51 0.31 0.35 0.42 0.36 0.29 0.26 0.30 0.29 0.36 0.35 0.37 0.40 0.44 0.43 0.41 0.47 0.43 0.45 0.36 0.36 0.37 0.40 0.40 0.37 0.36 0.40 0.41 0.47 0.45 0.53 0.51 0.54 0.63 0.63 0.69 0.64 0.59 0.61 0.69 0.65 0.58 0.51 0.45 0.47 0.49 0.55 0.62 0.66 0.64 0.63 0.58 0.55 0.49 0.53 0.51 0.45 0.37 0.28 0.31 0.35 0.32 0.31 0.28 0.23 0.18 0.29 0.34 0.33 0.32 0.32 0.31 0.32 0.32 0.31 0.32 0.32 0.30 0.30 0.31 0.32 0.33
0.34 0.33 0.48 0.52 0.55 0.53 0.40 0.29 0.32 0.34 0.33 0.32 0.34 0.31 0.34 0.33 0.33 0.37 0.34 0.37 0.33 0.39 0.37 0.32 0.41 0.40 0.43 0.38 0.40 0.41 0.45 0.39 0.40 0.37 0.44 0.49 0.52 0.55 0.62 0.64 0.66 0.66 0.69 0.65 0.68 0.68 0.68 0.54 0.47 0.48 0.55 0.58 0.61 0.66 0.66 0.66 0.64 0.59 0.60 0.60 0.56 0.49 0.47 0.40 0.34 0.35 0.32 0.33 0.29 0.27 0.24 0.20 0.29 0.35 0.33 0.34 0.34 0.33 0.32 0.32 0.31 0.30 0.31 0.31 0.30 0.30 0.31 0.31
0.35 0.35 0.39 0.52 0.54 0.51 0.33 0.21 0.22 0.28 0.32 0.36 0.34 0.33 0.35 0.34 0.30 0.32 0.31 0.34 0.31 0.31 0.31 0.31 0.33 0.43 0.42 0.45 0.42 0.35 0.45 0.36 0.49 0.46 0.43 0.50 0.50 0.66 0.68 0.67 0.69 0.63 0.63 0.63 0.59 0.67 0.52 0.54 0.50 0.41 0.40 0.44 0.49 0.56 0.58 0.64 0.62 0.55 0.51 0.54 0.55 0.54 0.52 0.49 0.46 0.44 0.32 0.31 0.29 0.26 0.19 0.19 0.29 0.35 0.34 0.34 0.34 0.32 0.30 0.32 0.32 0.31 0.31 0.31 0.31 0.32 0.32 0.32
0.35 0.39 0.40 0.41 0.48 0.46 0.28 0.29 0.28 0.27 0.27 0.28 0.29 0.29 0.30 0.30 0.33 0.32 0.32 0.31 0.33 0.33 0.31 0.31 0.33 0.36 0.39 0.48 0.43 0.43 0.43 0.41 0.40 0.50 0.51 0.53 0.54 0.66 0.67 0.69 0.70 0.65 0.69 0.72 0.70 0.72 0.57 0.52 0.48 0.37 0.32 0.29 0.28 0.30 0.34 0.40 0.46 0.50 0.50 0.50 0.53 0.51 0.49 0.45 0.38 0.39 0.31 0.31 0.34 0.29 0.24 0.25 0.32 0.35 0.36 0.36 0.36 0.34 0.34 0.34 0.33 0.32 0.31 0.31 0.31 0.32 0.32 0.33
0.28 0.23 0.33 0.34 0.38 0.36 0.35 0.35 0.30 0.26 0.24 0.24 0.25 0.28 0.31 0.27 0.30 0.34 0.33 0.31 0.33 0.31 0.32 0.33 0.35 0.35 0.33 0.38 0.40 0.41 0.40 0.47 0.41 0.42 0.46 0.47 0.53 0.59 0.66 0.68 0.69 0.67 0.69 0.72 0.73 0.69 0.56 0.57 0.53 0.46 0.39 0.33 0.33 0.36 0.44 0.47 0.49 0.45 0.48 0.49 0.48 0.51 0.53 0.51 0.47 0.40 0.34 0.34 0.33 0.35 0.32 0.28 0.30 0.33 0.35 0.36 0.36 0.35 0.33 0.32 0.31 0.31 0.31 0.32 0.32 0.33 0.35 0.34
0.30 0.24 0.26 0.24 0.31 0.30 0.28 0.30 0.27 0.28 0.23 0.26 0.22 0.25 0.24 0.26 0.30 0.28 0.34 0.26 0.30 0.29 0.30 0.30 0.33 0.26 0.29 0.28 0.30 0.36 0.42 0.42 0.47 0.43 0.44 0.44 0.51 0.55 0.61 0.64 0.68 0.70 0.70 0.69 0.73 0.66 0.56 0.50 0.53 0.52 0.48 0.45 0.48 0.47 0.49 0.49 0.44 0.45 0.46 0.47 0.52 0.53 0.54 0.50 0.43 0.37 0.41 0.37 0.33 0.38 0.37 0.31 0.28 0.31 0.33 0.35 0.35 0.34 0.33 0.33 0.32 0.31 0.30 0.32 0.34 0.35 0.35 0.34
0.20 0.27 0.29 0.31 0.22 0.20 0.21 0.22 0.26 0.25 0.29 0.26 0.20 0.23 0.21 0.23 0.26 0.22 0.26 0.28 0.31 0.31 0.26 0.27 0.28 0.28 0.28 0.25 0.27 0.25 0.35 0.38 0.42 0.38 0.43 0.47 0.49 0.53 0.52 0.59 0.61 0.68 0.72 0.70 0.71 0.61 0.52 0.45 0.50 0.53 0.50 0.51 0.52 0.51 0.52 0.52 0.50 0.49 0.49 0.48 0.47 0.50 0.51 0.47 0.46 0.46 0.45 0.40 0.32 0.35 0.38 0.34 0.31 0.30 0.33 0.36 0.35 0.33 0.33 0.33 0.34 0.34 0.35 0.35 0.34 0.34 0.33 0.33
0.33 0.31 0.30 0.33 0.22 0.26 0.23 0.26 0.25 0.25 0.24 0.25 0.24 0.21 0.19 0.20 0.19 0.22 0.25 0.21 0.22 0.25 0.23 0.18 0.20 0.22 0.23 0.26 0.25 0.23 0.29 0.29 0.33 0.42 0.40 0.41 0.44 0.47 0.46 0.51 0.57 0.66 0.69 0.67 0.68 0.67 0.55 0.47 0.50 0.52 0.48 0.48 0.51 0.52 0.52 0.50 0.50 0.51 0.51 0.51 0.52 0.52 0.50 0.49 0.46 0.46 0.46 0.42 0.40 0.37 0.37 0.35 0.32 0.30 0.34 0.37 0.38 0.36 0.36 0.36 0.36 0.36 0.35 0.35 0.34 0.35 0.35 0.34
0.27 0.28 0.26 0.30 0.29 0.28 0.28 0.26 0.24 0.22 0.19 0.20 0.17 0.17 0.18 0.17 0.16 0.19 0.22 0.22 0.15 0.17 0.23 0.17 0.18 0.22 0.22 0.24 0.24 0.21 0.25 0.29 0.32 0.33 0.41 0.42 0.44 0.47 0.44 0.46 0.46 0.56 0.64 0.61 0.63 0.66 0.56 0.46 0.52 0.51 0.47 0.47 0.51 0.53 0.53 0.52 0.50 0.47 0.50 0.52 0.53 0.53 0.52 0.51 0.48 0.46 0.45 0.43 0.39 0.36 0.35 0.34 0.34 0.37 0.39 0.40 0.39 0.40 0.38 0.36 0.36 0.36 0.35 0.35 0.35 0.34 0.36 0.35
0.40 0.39 0.39 0.28 0.22 0.25 0.28 0.26 0.23 0.21 0.18 0.20 0.17 0.17 0.16 0.15 0.13 0.15 0.17 0.22 0.18 0.15 0.18 0.14 0.14 0.18 0.21 0.22 0.24 0.21 0.23 0.27 0.31 0.35 0.41 0.44 0.38 0.47 0.44 0.46 0.54 0.50 0.57 0.58 0.60 0.59 0.59 0.49 0.55 0.51 0.42 0.42 0.49 0.49 0.49 0.50 0.50 0.48 0.48 0.50 0.51 0.50 0.47 0.46 0.43 0.40 0.39 0.35 0.36 0.37 0.35 0.31 0.30 0.38 0.41 0.41 0.41 0.40 0.37 0.37 0.36 0.36 0.36 0.36 0.35 0.34 0.36 0.35
0.42 0.45 0.40 0.34 0.23 0.27 0.23 0.25 0.25 0.22 0.17 0.18 0.16 0.16 0.15 0.15 0.16 0.18 0.14 0.18 0.20 0.18 0.17 0.14 0.16 0.17 0.19 0.20 0.19 0.21 0.23 0.25 0.27 0.32 0.36 0.44 0.48 0.51 0.55 0.55 0.58 0.53 0.54 0.56 0.61 0.55 0.55 0.51 0.46 0.46 0.40 0.37 0.42 0.45 0.46 0.47 0.46 0.41 0.43 0.46 0.46 0.45 0.44 0.44 0.45 0.47 0.48 0.44 0.39 0.36 0.30 0.28 0.34 0.42 0.38 0.38 0.39 0.40 0.40 0.39 0.37 0.37 0.38 0.37 0.36 0.36 0.37 0.36
Wind_Speed
56 55 54 54 55 55 56 56 56 56 56 55 53 52 51 51 51 52 52 52 52 52 51 49 48 46 46 45 45 44 42 42 42 43 43 41 39 37 36 36 35 32 31 31 30 28 27 26 25 23 22 20 19 19 18 17 16 16 15 15 15 14 14 14 12 11 11 11 10 9 9 9 9 9 9 8 9 8 8 7 7 6 6 5 6 7 8 9
56 56 55 54 54 55 55 56 56 56 57 56 54 53 52 50 50 52 52 52 52 52 52 50 48 47 46 46 45 44 42 42 43 44 44 41 40 39 37 36 36 34 32 32 31 29 28 27 26 25 23 21 20 20 19 18 18 17 16 16 16 15 13 13 13 12 11 11 11 9 9 9 9 9 9 9 10 10 9 9 9 8 8 7 8 9 9 9
57 56 55 55 54 54 54 55 56 56 56 56 55 54 53 51 51 51 52 52 52 53 52 51 49 48 47 46 45 44 43 42 44 45 44 42 41 40 38 36 36 35 33 32 32 30 29 28 27 26 25 23 22 21 20 19 18 18 17 16 17 16 13 13 13 13 12 12 12 11 10 9 9 10 10 10 11 11 10 10 10 10 11 10 9 10 10 10
58 57 56 55 54 54 54 54 55 56 56 56 56 55 54 53 51 51 51 52 52 53 52 52 50 49 48 47 45 44 42 42 44 45 44 44 42 40 40 37 36 36 34 33 31 30 29 28 28 27 26 24 23 22 21 20 19 18 18 17 17 16 15 15 14 14 13 13 13 12 12 11 10 11 11 11 11 9 10 9 9 10 11 12 11 11 11 10
59 58 57 56 55 54 54 54 54 55 56 56 56 55 55 54 52 51 51 52 52 53 52 52 50 48 48 47 46 45 42 40 42 45 45 45 43 41 40 38 37 36 35 34 32 31 30 29 29 28 26 25 24 22 22 22 20 18 18 19 18 17 16 16 15 15 15 15 15 14 13 12 11 12 13 13 12 9 8 8 8 9 9 11 12 12 12 11
60 59 58 57 55 54 53 53 53 54 55 56 56 56 55 54 54 52 51 51 52 53 52 53 51 48 46 47 47 47 45 41 38 42 46 46 44 42 40 39 38 37 36 35 33 32 31 31 30 28 27 26 25 23 22 22 22 19 18 19 19 18 17 16 15 15 15 16 17 15 13 13 13 14 14 14 14 11 10 10 9 9 10 11 13 12 12 12
60 59 59 58 57 55 54 53 53 53 54 55 55 56 56 55 54 53 52 51 52 53 52 53 53 50 46 44 46 48 48 44 36 38 45 46 45 43 41 40 39 38 37 36 34 33 32 32 31 28 27 26 25 24 23 23 23 21 19 18 19 18 17 15 15 15 15 16 16 15 15 15 15 14 13 14 14 13 13 12 11 11 11 12 13 13 13 13
59 60 59 59 58 56 55 54 53 53 53 54 55 55 56 55 54 53 52 51 52 53 53 53 53 52 49 44 44 46 49 47 39 36 41 45 45 44 42 40 39 38 38 37 36 34 33 33 32 30 27 26 25 25 24 24 23 23 21 19 18 17 16 16 16 15 15 16 16 16 17 17 17 16 15 15 16 16 15 13 13 12 12 13 14 14 14 14
58 59 59 59 58 57 56 54 53 53 52 53 54 55 55 55 55 53 52 51 51 53 53 53 53 52 51 48 44 44 48 48 42 38 38 42 44 44 43 41 40 39 38 38 37 35 34 33 33 31 28 27 27 24 24 24 23 23 23 20 18 18 17 17 17 17 16 16 16 17 18 19 18 16 17 18 18 17 16 14 14 14 13 14 15 15 15 15
56 57 59 59 58 58 57 55 54 53 52 52 53 54 55 56 55 54 52 51 51 52 53 54 53 52 51 49 45 43 45 46 43 41 40 40 42 44 44 42 41 40 38 38 37 36 35 34 33 32 29 28 28 26 26 25 22 22 24 23 20 19 19 18 18 18 17 17 17 18 19 20 19 18 18 17 16 15 15 15 15 15 15 15 16 16 16 16
56 56 58 58 58 58 57 56 55 53 52 52 52 53 55 56 56 54 53 52 50 51 53 54 53 53 51 49 47 44 42 44 44 43 42 41 42 44 44 43 41 40 39 38 38 37 36 34 33 31 29 28 27 27 27 25 22 21 23 24 21 19 19 19 19 19 17 17 19 19 19 20 19 19 19 18 17 16 16 16 17 17 16 16 16 16 16 16
56 56 57 58 58 58 58 57 55 54 53 52 51 52 54 55 56 55 53 52 50 51 52 54 53 53 52 49 49 46 41 43 44 44 44 42 42 43 43 43 41 40 38 38 37 37 36 35 34 33 30 28 27 25 25 25 23 22 21 22 22 20 21 21 20 19 18 17 18 17 19 20 20 21 22 22 22 20 19 19 18 19 18 17 17 17 17 17
56 56 56 57 57 58 58 57 56 55 53 52 52 51 53 54 56 56 55 53 51 50 51 53 53 52 52 50 49 47 42 42 44 45 44 43 43 43 42 43 42 40 38 37 37 36 36 35 34 33 31 29 28 26 26 25 25 23 22 22 22 22 23 23 22 21 20 18 17 16 18 19 19 21 22 23 23 22 22 21 20 20 19 19 18 18 18 18
55 55 55 55 56 57 58 58 57 55 54 53 52 51 52 53 55 56 55 54 52 50 50 52 53 51 50 50 48 47 44 43 44 46 46 43 44 44 42 42 41 40 38 38 37 36 36 34 33 32 31 30 29 27 26 26 25 25 24 24 24 23 22 22 22 22 20 18 17 17 18 19 19 19 19 21 22 21 21 21 21 21 20 20 19 19 19 19
55 54 54 54 55 56 57 58 57 56 55 53 52 51 51 52 53 54 54 54 52 50 48 50 52 50 48 48 48 48 46 44 44 46 47 46 45 45 44 43 42 40 39 38 37 37 36 35 34 33 32 31 30 29 28 27 26 26 26 26 25 24 22 20 21 22 20 18 18 18 18 19 20 21 19 18 19 20 20 21 21 22 21 21 20 20 20 20
55 54 54 53 53 54 56 57 57 56 55 54 52 51 51 50 51 52 53 52 51 50 47 47 50 50 47 46 48 49 47 46 45 44 47 47 46 46 44 42 42 40 39 37 36 36 36 35 34 33 32 32 31 30 28 28 28 28 28 27 25 26 24 22 21 22 21 18 19 20 18 17 18 18 18 18 19 20 20 20 21 22 23 22 21 21 21 21
54 53 53 53 52 53 55 56 57 56 55 53 52 51 50 49 49 50 51 52 51 48 46 46 48 48 47 47 48 50 49 47 45 44 46 47 46 47 45 43 42 40 38 37 36 36 36 35 35 34 33 33 33 31 30 31 31 29 29 28 26 25 25 24 22 22 22 20 20 22 21 20 18 17 18 19 21 21 21 22 22 22 23 23 22 22 22 22
53 52 52 52 52 52 53 55 56 56 55 53 52 51 50 49 48 49 49 50 50 47 45 45 47 44 45 49 48 49 51 49 45 44 46 48 47 47 47 44 42 40 38 36 36 37 36 36 35 35 35 35 35 35 34 33 32 30 28 28 27 26 25 24 22 21 22 21 21 22 22 22 21 20 21 22 22 23 23 23 23 22 22 23 23 23 22 22
51 52 52 51 51 52 52 53 55 56 55 53 52 50 49 48 47 47 49 50 50 48 44 45 49 44 41 48 50 47 49 48 44 43 46 48 48 47 46 44 43 41 39 38 38 39 37 36 37 38 39 39 39 38 36 32 30 31 29 28 28 27 26 24 22 21 22 22 22 23 23 23 22 22 22 23 23 24 24 24 24 23 23 23 24 24 23 23
50 51 51 51 51 51 52 53 54 56 55 53 52 50 48 48 47 47 49 51 51 49 44 44 50 48 40 43 48 47 47 45 42 42 46 48 49 48 45 45 43 41 41 40 39 40 39 39 41 42 41 40 39 38 36 32 29 31 29 28 29 28 26 25 23 23 23 22 22 23 23 23 23 22 22 23 23 24 23 23 24 24 23 24 25 25 25 24
48 49 50 50 50 51 51 52 53 55 56 54 54 51 50 51 49 48 49 50 52 51 47 43 46 49 44 41 45 48 47 43 40 41 44 47 49 48 46 45 44 43 42 41 39 39 40 42 44 43 40 38 38 37 36 34 31 30 30 29 29 29 27 25 23 24 23 22 23 23 24 25 24 23 23 24 23 23 23 23 24 24 24 24 25 26 26 26
48 48 49 50 50 49 49 50 51 54 54 54 54 51 51 52 49 49 49 47 51 51 49 46 44 46 46 44 44 46 47 43 38 39 43 45 47 48 47 46 45 44 44 42 40 40 41 45 45 41 38 37 38 38 37 36 33 30 30 30 30 29 27 25 24 24 23 22 23 24 25 26 25 24 25 25 24 24 24 24 24 24 25 25 25 26 27 27
47 48 48 49 49 49 48 49 50 52 52 53 54 51 51 52 48 48 47 44 47 49 49 48 46 45 45 45 46 47 47 44 39 38 42 44 45 47 49 47 45 45 45 45 44 43 44 45 43 40 39 39 39 39 38 36 35 32 31 30 30 29 27 25 25 25 24 24 24 24 26 26 25 25 25 25 26 25 25 25 25 25 25 25 25 25 26 28
47 47 47 48 48 48 48 48 48 49 50 52 53 50 49 50 49 48 46 42 44 47 49 50 47 47 46 44 46 48 49 45 38 36 41 44 43 45 48 47 46 46 46 47 46 46 45 41 40 40 40 40 40 40 39 37 35 35 33 32 30 29 28 25 25 25 25 25 24 24 25 26 26 26 25 25 26 27 27 27 26 26 25 25 25 25 24 26
47 47 47 47 48 48 48 47 47 47 47 49 51 48 47 49 48 48 45 41 43 45 47 49 48 49 48 43 44 46 46 46 42 36 39 44 43 42 45 46 46 47 48 48 46 46 44 40 40 42 41 42 41 40 40 38 36 35 35 34 32 30 28 25 25 26 25 25 24 22 23 24 23 23 23 21 21 23 25 25 25 25 25 25 26 25 24 24
47 47 47 47 47 48 47 45 46 47 45 46 48 48 47 48 47 47 44 40 42 45 47 49 49 50 50 44 43 44 42 45 45 39 38 43 44 41 42 43 44 47 48 46 44 43 42 42 42 43 42 42 42 41 41 39 36 36 35 35 33 30 28 27 26 25 25 25 24 23 24 24 23 23 22 20 20 21 21 22 23 24 24 25 25 26 25 25
46 46 47 48 48 48 46 44 45 46 44 43 46 47 46 47 46 45 42 38 40 45 47 49 49 51 51 46 43 43 40 41 43 42 40 41 43 41 41 42 42 45 45 42 43 43 43 44 44 44 44 43 42 42 41 40 38 36 34 34 34 31 29 28 26 26 26 25 25 25 24 26 27 26 24 24 23 23 23 23 23 23 23 24 25 26 26 26
45 46 47 48 48 47 44 43 45 45 43 42 44 45 45 46 45 43 40 36 39 43 45 48 49 50 51 48 46 43 38 37 39 43 42 39 42 42 40 42 42 43 45 44 45 45 45 47 46 46 45 43 43 41 40 40 38 35 34 34 33 31 29 28 27 27 26 25 27 28 24 25 27 25 23 24 25 25 25 24 24 25 25 25 25 26 26 27
43 44 45 46 47 44 41 42 45 43 41 41 42 43 44 44 43 40 38 37 38 41 44 47 49 49 50 50 49 45 40 37 35 37 39 37 41 41 38 41 41 40 43 44 44 42 42 46 46 44 43 42 42 40 39 39 37 34 32 30 29 28 28 27 27 27 26 26 29 28 25 25 27 25 23 23 24 24 23 22 23 24 26 27 26 26 26 26
42 43 44 45 43 40 40 41 43 41 40 40 40 41 42 42 40 38 37 38 38 39 42 46 48 50 52 50 49 47 43 39 35 34 34 33 38 41 38 39 40 39 39 39 39 39 39 42 43 42 41 41 40 38 38 39 37 33 30 28 27 27 28 27 27 25 25 28 30 29 27 26 26 24 23 23 22 21 21 20 20 22 23 25 26 25 25 25
41 42 43 43 39 37 38 39 40 40 40 39 39 40 38 37 38 38 37 38 38 39 41 44 47 50 53 52 50 49 45 40 38 37 34 30 34 39 39 38 38 37 38 37 36 37 37 38 40 40 40 39 38 37 37 37 37 34 31 30 28 28 27 27 27 26 27 29 28 27 28 28 28 26 22 20 19 18 19 19 19 19 20 22 23 23 24 24
40 40 41 39 36 36 36 37 39 39 39 39 38 38 36 34 35 37 37 37 37 40 44 45 46 49 51 53 52 51 47 42 40 39 36 32 33 38 41 40 38 35 35 38 37 35 36 38 39 38 39 40 39 37 35 35 37 35 34 33 30 27 27 28 28 28 30 31 27 25 27 29 33 31 27 25 22 21 22 22 20 20 20 20 20 21 21 22
38 39 38 36 35 34 34 36 38 38 38 39 36 35 34 32 34 37 38 38 35 37 44 46 46 48 50 52 52 51 48 44 42 40 37 35 35 39 41 42 41 35 32 38 39 35 35 36 39 39 38 40 41 39 38 37 38 38 37 36 33 29 29 30 30 28 30 31 29 27 27 29 32 31 31 31 29 26 25 25 24 22 21 21 20 20 21 21
37 37 35 34 34 33 33 35 37 37 38 37 34 33 32 30 33 38 40 39 35 35 41 45 46 48 50 51 51 52 49 45 45 43 38 36 37 40 41 42 44 38 32 35 38 38 36 35 40 42 39 41 42 41 41 39 38 38 36 36 36 33 31 30 30 29 29 28 28 29 28 29 30 27 26 26 26 24 23 24 24 22 22 22 21 22 21 21
35 34 33 32 32 32 33 35 37 37 37 34 32 31 31 30 32 38 39 38 36 35 38 42 45 47 48 49 49 51 50 46 47 45 40 37 37 39 40 41 45 41 34 34 35 37 37 34 38 40 39 42 42 39 39 38 37 37 35 36 37 34 31 29 29 30 29 26 28 30 31 31 30 30 29 27 26 25 23 23 23 22 22 22 23 23 22 22
32 31 30 30 31 31 32 35 36 37 35 32 31 31 31 30 31 35 38 38 38 38 38 40 44 45 46 47 48 50 48 45 45 46 42 38 36 38 39 38 43 44 38 35 34 36 36 34 36 38 39 41 40 39 40 39 37 37 37 38 37 34 31 29 28 28 27 28 30 31 33 33 31 33 33 32 31 29 25 25 24 24 25 24 24 24 24 24
29 29 28 28 29 30 32 34 35 35 33 31 31 30 30 29 29 32 35 36 37 38 39 39 42 43 43 45 48 49 46 43 44 45 45 41 35 36 38 37 39 44 42 37 33 34 34 32 34 38 39 39 37 38 40 38 36 37 39 39 34 31 32 30 29 28 27 29 31 32 34 33 30 31 29 28 29 27 24 24 24 25 25 23 24 24 24 25
28 27 26 26 28 29 32 34 34 33 31 29 30 30 28 27 27 29 32 34 34 36 38 39 39 41 43 44 47 49 47 44 44 44 45 44 38 36 38 37 37 42 43 40 34 33 33 31 32 36 39 37 36 37 38 36 37 38 38 37 34 32 33 33 31 30 30 31 31 32 35 34 33 33 29 26 27 26 24 24 24 24 24 24 25 25 25 24
27 26 24 25 27 28 31 33 32 31 30 29 30 28 26 27 27 26 29 32 33 34 37 37 37 39 42 43 45 48 48 46 44 43 44 45 42 40 40 37 36 38 42 42 36 34 34 33 32 35 37 38 39 40 40 39 37 36 36 37 37 35 34 35 34 32 30 31 31 32 33 34 35 35 32 32 31 29 28 27 26 26 25 26 26 25 25 24
26 24 24 26 28 28 30 31 30 28 29 29 29 27 25 26 27 25 26 29 30 32 34 35 36 38 40 42 44 46 47 46 45 44 43 44 44 43 41 39 36 36 40 41 37 34 34 34 33 33 36 38 41 42 44 44 40 38 37 38 39 37 34 34 36 35 32 30 31 32 33 34 34 31 32 33 32 30 29 27 26 26 24 24 24 24 23 23
25 23 24 27 28 28 29 29 28 27 27 27 27 26 25 25 26 26 26 27 28 29 31 33 34 37 37 39 41 44 45 45 45 44 42 43 45 44 43 42 38 36 37 39 37 34 33 34 33 34 36 39 41 41 42 43 43 42 41 40 40 39 35 32 34 36 35 33 32 31 33 36 34 29 29 30 28 28 27 24 24 24 23 22 22 22 22 23
24 22 24 27 28 28 28 27 27 27 26 26 26 26 25 24 25 27 27 27 27 28 29 30 30 33 36 37 38 40 44 45 45 44 42 43 45 45 45 45 41 36 36 37 38 35 32 32 33 33 36 37 37 38 39 39 41 42 41 40 39 39 38 35 35 35 35 36 36 33 34 38 35 30 28 27 26 25 23 22 23 23 23 22 22 22 23 24
23 22 24 26 28 27 27 26 27 26 26 26 25 25 24 23 24 26 27 28 28 28 29 30 29 30 33 36 36 37 41 42 44 44 42 41 43 43 44 47 44 38 36 36 37 35 31 31 32 30 31 33 34 36 37 36 38 40 41 41 40 41 41 39 36 34 34 37 37 33 35 39 36 30 29 27 26 25 24 24 24 24 25 24 23 23 23 24
22 22 23 26 27 27 25 25 26 26 25 25 24 24 24 24 24 25 27 28 28 28 28 30 30 30 30 33 35 38 40 40 41 43 41 39 41 40 41 46 46 41 38 36 36 36 34 32 32 29 27 29 31 33 35 36 38 41 42 43 42 42 41 39 36 35 36 39 39 36 37 40 35 30 31 30 29 28 28 28 28 27 27 26 24 23 23 23
23 22 23 25 26 26 25 23 23 24 25 25 24 23 23 23 24 25 25 26 27 27 27 28 30 30 30 31 32 35 39 40 39 41 40 37 38 38 38 43 45 43 41 37 35 35 35 35 35 33 30 31 32 34 36 38 39 39 41 44 44 43 42 41 38 37 37 39 39 38 40 41 37 33 33 33 32 32 31 30 30 29 28 27 26 25 25 25
23 23 24 25 25 26 25 23 22 23 25 26 24 23 24 23 23 24 24 25 26 27 26 27 28 29 31 32 31 31 35 38 39 40 39 37 36 35 35 37 41 44 43 39 36 34 32 35 38 37 36 35 34 33 34 35 36 37 39 42 42 42 42 40 38 39 40 38 39 40 41 43 43 40 38 35 34 33 32 31 31 30 30 29 28 28 27 27
23 24 25 25 25 25 26 25 24 23 24 25 24 23 24 23 22 22 24 24 25 26 25 26 27 29 31 33 33 32 31 34 38 40 40 38 36 35 34 34 37 43 44 41 40 37 33 34 38 39 39 36 31 29 31 34 36 39 39 39 40 40 39 39 40 41 40 37 39 41 41 43 46 44 41 38 36 35 34 33 32 31 31 31 30 30 29 29
23 23 25 25 24 25 26 26 26 25 23 23 23 22 23 24 23 22 23 23 23 25 25 26 28 29 30 32 34 35 34 32 35 39 40 39 36 35 35 34 35 39 41 41 42 40 38 37 38 38 39 37 32 29 30 33 35 37 38 39 40 39 39 40 41 41 39 37 40 41 41 43 46 44 39 36 36 35 35 34 33 32 32 31 31 31 31 30
23 23 25 26 24 24 25 25 26 26 25 24 24 23 23 24 24 24 23 22 23 25 25 26 27 28 30 31 33 36 37 36 36 37 39 40 37 34 34 34 35 37 38 40 40 39 39 40 40 38 38 38 36 32 31 32 33 35 38 39 39 39 40 40 41 41 40 40 42 43 42 44 46 42 36 34 36 36 35 35 34 33 33 33 32 31 31 31
24 24 25 26 25 24 25 25 26 27 26 25 25 25 24 24 25 24 23 23 24 24 26 27 27 28 29 30 32 35 38 39 39 37 37 38 38 35 33 33 33 35 37 39 39 38 38 39 39 39 38 37 37 35 33 33 34 36 38 38 39 39 40 41 42 42 42 43 45 43 42 44 45 40 36 36 37 38 37 36 35 35 34 33 32 31 32 32
25 24 24 26 26 26 25 26 26 26 27 27 27 26 26 27 26 24 24 25 24 24 25 27 27 26 27 29 32 35 36 39 41 40 38 38 38 37 35 32 31 32 35 38 39 39 38 37 37 38 38 39 39 38 35 34 34 36 38 39 39 40 41 42 43 43 42 43 43 41 40 42 39 36 36 36 36 35 35 35 35 34 33 32 32 32 33 33
26 25 25 25 26 26 27 26 27 27 27 28 28 28 28 28 26 24 24 25 26 26 25 25 24 24 26 28 31 34 36 38 41 41 41 41 39 38 37 35 31 31 33 35 37 39 40 39 37 37 39 41 41 40 36 33 32 35 39 42 43 44 43 42 42 42 41 41 40 39 40 38 32 31 35 36 35 35 35 34 34 34 34 34 34 34 34 33
Wind_Direction
222 221 221 220 220 219 218 218 218 217 217 217 216 216 216 216 216 216 216 216 216 215 215 215 216 217 216 216 216 217 217 218 218 218 219 219 218 218 216 214 213 213 214 215 215 215 215 216 217 217 217 219 219 220 219 216 218 221 223 224 226 226 226 227 230 228 219 218 223 224 231 232 224 223 228 232 233 228 224 222 226 228 220 210 195 185 186 190
221 221 220 220 219 219 218 218 217 217 217 216 216 215 216 216 216 216 216 216 216 215 215 215 215 216 216 216 216 217 218 219 219 219 219 218 218 217 215 213 213 213 214 215 215 215 215 215 216 216 218 219 219 219 219 217 216 220 223 225 225 227 228 227 228 229 224 219 220 224 231 233 231 228 227 233 230 223 226 224 222 223 218 215 200 188 195 197
221 220 220 219 219 218 218 218 217 217 216 216 216 215 215 216 216 216 215 216 215 215 215 215 215 215 216 216 216 216 217 219 220 220 219 217 216 215 214 213 212 212 214 215 215 215 215 215 216 217 217 220 219 217 219 218 218 221 224 225 226 227 228 229 228 229 229 227 222 224 232 231 233 233 229 236 234 223 227 227 221 223 218 215 207 196 202 205
220 219 219 219 219 218 218 218 218 217 216 216 216 215 215 215 215 215 215 215 215 215 215 214 215 215 215 215 216 216 216 220 222 219 217 216 215 214 213 213 212 212 213 215 215 215 216 216 216 217 217 219 218 217 219 218 218 221 223 226 228 225 224 227 227 227 231 234 230 227 231 229 232 236 233 238 240 230 229 229 226 230 223 213 210 204 206 210
219 219 219 218 218 218 218 217 218 217 216 216 216 215 215 215 215 215 215 215 215 215 214 214 214 214 215 214 215 215 215 221 222 218 217 215 214 214 213 213 212 212 213 214 215 216 216 216 217 217 218 219 218 218 221 219 219 224 225 227 229 225 225 225 224 229 231 233 233 231 232 233 234 236 234 235 237 232 231 236 236 241 235 217 213 210 210 214
219 219 218 218 218 218 217 217 217 217 217 216 216 215 215 215 214 214 215 214 214 214 213 213 212 212 213 214 215 215 215 220 221 217 216 214 213 213 213 213 213 213 213 214 215 215 215 216 217 216 217 220 219 219 221 219 219 225 227 226 229 229 227 222 221 230 232 232 233 232 236 238 239 239 235 233 235 237 239 242 239 243 245 226 217 216 214 217
218 218 218 218 217 217 217 217 217 217 216 216 216 215 214 214 214 214 214 214 214 213 213 212 212 212 212 212 214 216 217 219 219 217 215 213 213 213 213 213 213 214 214 214 214 214 215 216 218 218 217 219 219 218 221 221 220 225 228 225 229 230 223 218 222 230 233 233 233 233 237 239 241 241 238 237 236 240 244 241 236 239 243 230 222 223 221 220
218 217 217 218 217 217 217 217 216 216 216 215 215 215 214 213 213 213 213 213 213 212 212 212 212 211 211 212 213 217 219 218 218 217 213 212 213 212 213 214 214 214 214 215 214 214 215 216 218 219 218 219 220 220 221 223 223 225 228 226 225 224 219 219 225 229 233 234 233 235 237 238 242 241 239 241 241 243 243 237 234 237 239 232 227 228 227 224
217 217 217 217 217 216 216 216 216 216 215 215 215 215 214 213 213 213 213 213 213 212 212 211 212 211 211 213 214 219 219 216 218 218 213 212 213 213 213 214 214 214 215 215 215 215 215 216 217 219 220 220 222 223 222 224 225 223 227 228 222 221 221 222 226 230 234 235 235 237 239 241 242 241 241 243 243 242 238 234 235 236 237 234 231 231 230 228
216 216 216 216 216 216 216 215 215 215 215 215 215 215 215 214 213 212 213 213 212 212 211 211 211 210 211 212 214 220 218 215 218 218 214 213 212 213 213 214 214 214 215 215 216 216 216 217 218 219 222 222 222 223 224 224 225 222 225 228 223 224 225 224 227 230 232 236 236 237 241 244 241 238 240 242 239 235 232 234 236 237 237 235 233 233 232 231
216 216 215 215 215 215 215 215 215 215 215 214 214 214 215 214 213 212 213 213 212 211 211 211 210 210 212 212 214 219 217 214 217 216 215 214 212 213 213 214 214 214 215 216 217 217 217 218 218 219 221 222 220 222 226 224 223 223 224 225 224 226 226 225 230 230 231 235 235 236 243 244 241 238 239 240 238 233 233 236 237 238 239 236 235 235 234 234
215 215 215 214 214 214 214 214 214 214 215 214 214 214 214 214 213 213 212 213 212 211 211 210 210 211 212 213 215 218 217 215 216 215 214 214 213 214 214 213 214 214 215 216 217 217 217 218 218 218 220 221 220 222 225 221 221 226 226 224 224 228 230 229 231 230 231 234 231 236 245 243 239 240 240 240 239 237 237 239 239 239 240 238 236 237 236 235
215 215 215 214 214 214 214 214 213 214 214 214 214 213 214 214 213 213 213 213 213 212 211 210 211 212 212 214 215 217 216 216 215 214 213 214 214 213 213 213 213 214 216 216 217 217 216 217 218 218 220 221 220 221 223 220 221 225 227 227 227 231 234 231 231 231 231 233 228 234 245 242 239 241 241 240 239 239 240 241 241 239 239 239 238 238 238 236
214 214 214 214 214 213 213 213 213 213 213 214 214 213 213 213 213 213 213 213 213 213 213 211 211 212 213 215 215 216 216 216 216 214 212 213 213 212 212 212 213 214 216 217 216 216 217 217 217 218 220 221 220 221 223 222 223 224 227 230 229 232 233 230 230 230 231 232 227 233 246 244 243 244 240 238 238 238 240 241 241 239 239 239 239 239 239 238
214 214 213 213 213 213 212 212 212 213 213 213 213 213 212 212 212 211 212 213 213 213 213 212 212 212 214 216 215 215 215 215 216 214 212 212 211 211 211 211 212 214 216 217 216 216 217 216 216 218 220 221 219 219 221 223 224 225 227 229 229 231 233 231 229 226 228 235 230 233 245 245 245 245 239 236 236 236 240 242 242 242 240 239 239 240 240 240
212 213 212 212 212 212 212 212 212 212 212 212 211 211 211 211 211 210 211 212 213 213 212 212 212 211 214 216 214 213 213 215 215 214 213 212 211 211 210 210 212 214 215 216 216 216 216 216 217 219 219 220 219 219 220 222 224 225 226 229 229 229 233 234 231 227 227 235 235 235 243 245 244 242 236 236 237 237 241 244 246 246 245 241 239 239 240 241
210 211 211 211 211 211 211 211 210 210 210 210 209 210 210 209 209 209 209 210 212 211 211 212 210 211 216 215 212 212 212 214 215 215 213 212 211 210 209 210 211 212 213 215 215 215 216 217 218 219 220 221 220 218 219 221 223 223 225 228 230 229 231 232 232 232 230 234 238 238 243 245 245 242 237 237 239 240 242 244 247 248 247 243 239 239 240 241
209 209 210 210 210 210 210 209 209 208 208 208 208 209 209 208 208 209 208 209 210 210 211 212 209 211 216 214 212 212 212 213 216 217 214 211 211 210 209 210 211 211 211 214 216 215 216 218 218 219 220 220 219 217 219 221 221 221 223 226 229 230 230 231 233 233 231 236 239 239 242 245 246 245 243 242 242 242 243 243 246 248 248 246 241 239 240 241
207 208 209 209 209 208 208 208 207 207 206 206 207 207 207 207 208 209 209 208 209 209 210 210 208 210 214 212 211 210 210 212 215 216 214 211 210 210 210 211 211 210 211 215 216 215 216 217 218 218 218 219 218 219 220 222 221 222 224 226 228 230 231 233 235 232 230 236 241 240 243 245 245 245 245 245 245 244 244 244 246 247 248 247 243 240 239 241
206 206 207 207 207 207 207 207 207 206 205 205 205 204 205 205 206 208 208 208 210 211 211 210 210 212 213 210 210 209 208 211 215 216 213 211 209 209 210 211 211 212 214 215 216 216 216 217 218 218 219 218 219 220 222 224 224 224 225 227 227 230 232 233 235 234 233 238 242 242 245 247 246 247 247 247 247 247 246 245 246 247 247 247 245 242 240 241
204 204 204 205 205 205 205 205 205 204 204 205 204 205 206 205 207 208 206 208 211 212 212 211 210 212 213 211 209 208 207 210 215 216 213 211 210 209 210 211 211 215 216 214 214 216 217 219 220 219 219 219 220 221 222 224 226 225 226 227 228 229 232 235 235 234 235 239 244 245 248 249 248 249 249 248 248 248 248 248 247 247 247 246 245 244 242 242
203 203 202 203 203 204 204 203 203 202 203 204 204 207 208 208 211 209 207 210 211 212 212 210 210 211 212 213 210 207 207 210 214 213 210 209 210 210 210 211 213 215 215 213 213 215 218 221 220 218 219 219 220 222 222 223 225 226 227 228 228 229 231 234 234 234 236 241 246 248 250 251 252 251 249 249 249 249 249 250 250 249 248 246 246 246 245 244
201 201 201 202 202 202 202 201 202 202 202 204 205 208 208 208 210 208 208 212 211 212 213 211 210 210 210 212 211 208 207 209 211 211 208 207 210 210 210 212 213 214 213 213 214 214 218 221 219 216 218 219 219 221 221 223 224 225 226 227 228 228 229 231 235 238 240 243 248 252 253 251 253 254 251 250 250 251 251 251 252 250 248 247 246 247 246 244
200 200 201 200 200 200 200 200 200 201 203 204 205 207 208 207 208 206 208 212 213 214 214 213 212 211 210 211 211 210 209 210 212 212 209 208 209 210 211 213 212 213 214 214 215 217 221 221 216 216 219 219 219 219 220 222 224 224 225 226 227 228 229 232 236 240 242 244 247 251 254 252 250 251 252 249 248 249 250 250 251 249 247 247 247 248 246 244
199 199 200 199 199 198 197 198 199 200 202 204 204 205 206 206 206 206 208 213 214 214 214 214 214 213 210 210 211 210 211 213 213 213 211 210 209 210 213 214 213 213 214 214 215 220 222 218 214 216 219 218 219 220 220 221 223 225 225 225 227 229 232 233 234 239 244 247 247 249 251 250 248 248 250 249 246 247 247 247 249 249 247 246 247 248 248 247
197 198 198 197 197 195 195 199 200 199 200 203 204 204 205 205 205 206 208 214 216 214 212 212 212 212 209 209 209 207 211 215 214 214 213 213 212 212 212 213 215 215 213 214 218 222 221 217 215 217 218 218 220 222 221 220 223 226 225 224 227 231 235 236 235 238 243 245 247 247 246 250 252 250 250 251 252 252 250 248 248 249 248 247 247 248 248 248
196 196 195 195 194 193 196 199 198 198 200 202 202 202 204 204 203 205 208 215 218 213 210 210 211 210 207 207 206 205 210 212 211 213 214 212 213 213 213 211 212 215 214 214 218 220 218 216 216 216 217 219 220 222 221 219 223 227 224 224 229 231 235 239 238 238 241 244 246 244 245 253 254 250 250 252 254 256 255 255 255 253 251 249 248 248 248 248
192 192 193 193 194 194 197 197 195 197 200 200 199 201 202 201 202 205 208 214 215 210 210 211 211 209 207 206 204 207 211 208 207 212 213 212 211 212 214 211 211 213 212 213 217 218 217 216 216 216 217 220 220 222 220 218 224 229 225 225 229 230 233 237 238 238 241 245 246 243 243 251 252 247 248 249 250 253 254 255 256 256 254 252 249 248 247 248
188 188 189 189 191 194 196 195 194 196 196 196 197 199 199 199 201 205 210 214 212 210 211 209 209 208 205 204 205 209 213 211 211 210 209 213 211 210 213 212 212 213 213 216 219 219 219 218 217 216 218 220 220 221 219 218 224 228 225 224 227 229 232 234 236 237 240 244 244 241 239 246 252 249 245 247 249 252 253 254 253 252 252 252 250 249 248 248
182 183 183 182 185 189 191 192 193 194 193 193 194 195 195 198 201 204 209 212 210 210 209 207 208 206 203 204 207 209 212 214 213 207 207 212 211 210 213 212 213 214 215 218 220 222 222 218 218 219 220 220 220 220 220 219 221 222 221 220 224 229 231 233 236 238 242 244 242 238 236 242 250 249 242 243 246 250 253 256 256 251 249 250 251 250 249 250
177 178 178 179 182 184 185 187 190 190 190 190 189 190 193 198 203 205 208 209 209 209 207 206 207 205 203 204 207 209 211 213 212 208 209 212 210 209 211 211 212 214 215 215 218 221 219 215 217 220 220 218 217 218 219 218 217 219 221 220 223 229 232 235 239 237 240 242 240 238 236 236 242 244 242 242 245 250 255 257 259 257 254 252 250 249 249 250
175 176 178 181 184 185 186 187 187 187 188 187 187 190 193 198 205 208 207 206 209 211 207 206 207 206 205 205 207 208 210 212 211 210 213 214 212 210 209 209 209 210 213 212 213 217 216 215 216 217 218 216 214 214 215 215 216 219 221 220 222 228 231 234 236 236 238 239 239 240 237 237 241 245 247 251 253 256 259 260 262 261 261 259 253 250 250 250
174 176 179 183 185 186 187 187 187 188 188 187 188 192 196 201 207 208 206 206 210 212 208 206 207 207 205 205 208 208 209 212 210 211 216 217 215 214 212 211 209 211 213 209 209 211 213 216 216 214 217 216 214 213 213 216 217 219 220 219 221 226 230 232 233 236 239 240 239 239 241 244 247 249 248 249 253 256 256 259 259 259 260 261 259 257 255 253
173 175 178 182 184 185 185 185 185 187 186 187 190 193 197 204 208 206 206 208 210 210 208 207 207 207 206 207 208 207 209 213 210 210 216 217 216 215 214 213 211 213 214 210 210 210 210 215 215 214 216 215 216 217 217 219 220 222 223 223 224 227 230 232 234 236 239 241 239 237 240 243 243 246 246 247 253 255 254 255 256 257 257 258 260 260 258 256
171 175 178 181 183 185 185 185 184 184 185 188 193 197 199 204 207 207 207 208 208 208 208 207 206 207 208 209 210 209 210 213 212 212 215 215 216 214 213 213 212 212 213 211 212 211 213 218 216 216 219 216 216 220 219 219 220 223 224 224 226 228 231 235 236 235 236 239 238 235 240 242 242 248 251 252 257 257 255 254 254 256 256 257 260 259 258 255
172 176 179 181 183 185 185 185 185 186 187 190 195 199 203 206 209 209 207 206 208 208 206 206 207 207 208 210 210 209 211 213 212 212 214 215 216 215 213 213 211 211 212 212 212 211 214 220 217 217 220 218 218 219 218 218 220 222 223 223 225 228 231 234 237 236 236 239 238 235 242 246 248 252 251 250 253 255 253 252 252 254 257 258 259 259 258 256
174 176 179 181 183 184 185 185 185 187 189 194 198 201 204 207 210 211 208 205 207 208 207 207 208 208 208 209 210 208 209 211 212 212 213 214 216 215 213 214 213 212 213 214 216 214 214 219 220 218 218 220 222 219 219 223 224 223 223 223 225 229 232 233 236 237 236 241 241 237 241 244 244 248 248 244 246 250 251 250 250 252 254 255 256 257 259 259
173 175 177 180 182 184 185 185 185 187 190 195 200 202 204 206 208 209 207 205 206 209 209 209 210 210 209 209 210 208 207 209 211 212 213 214 217 215 212 213 214 213 214 215 218 217 214 217 223 222 219 220 221 219 219 225 227 226 225 224 225 230 232 231 234 237 236 241 244 240 241 242 240 242 247 245 244 247 250 249 249 250 251 253 256 259 260 260
173 176 179 181 182 183 184 184 185 188 192 196 199 201 203 205 205 205 205 204 206 209 209 210 211 212 212 211 210 209 208 209 209 211 214 215 218 216 213 214 216 214 214 215 218 219 217 218 221 223 223 221 220 220 219 221 225 227 226 224 227 231 232 231 233 237 238 240 244 244 243 243 242 243 246 248 248 249 250 250 252 254 253 253 256 258 259 259
176 179 182 182 182 182 183 183 186 191 196 198 200 201 202 204 205 204 203 203 207 210 210 212 213 212 212 212 211 211 211 210 210 212 215 216 217 218 215 215 216 215 214 215 218 220 219 220 220 221 223 221 220 221 222 221 222 224 225 225 227 230 232 234 235 236 237 239 242 244 245 244 244 244 244 246 248 250 250 251 251 253 253 252 254 257 258 259
180 181 183 182 182 182 183 184 188 193 197 199 201 202 203 205 206 205 205 205 207 210 210 211 214 213 213 212 212 212 213 212 211 213 215 216 217 219 218 216 216 216 215 215 217 220 220 220 219 218 220 221 222 224 225 225 223 224 226 227 227 228 230 233 235 235 236 239 240 244 248 246 243 245 247 247 248 249 248 247 248 250 252 254 257 258 259 260
182 182 183 183 183 183 185 188 192 196 199 200 202 204 205 207 209 208 208 208 209 211 210 211 213 214 214 214 213 213 213 214 214 214 216 217 218 220 219 217 217 217 217 217 217 218 220 220 218 219 220 222 224 225 226 227 226 226 229 229 228 228 228 230 235 235 235 239 242 245 250 249 244 245 250 250 248 248 246 246 249 252 254 257 259 261 261 261
183 181 182 183 184 186 188 191 193 196 200 202 204 206 205 208 210 209 210 211 212 213 213 213 213 213 214 215 215 213 213 214 215 215 217 219 220 221 219 216 216 218 219 219 217 216 219 219 217 218 222 224 225 225 226 228 227 226 228 229 228 229 229 231 236 237 236 237 238 242 247 248 245 245 248 248 247 248 249 249 250 252 255 257 259 260 261 262
183 182 184 186 188 190 193 193 194 198 200 200 203 206 207 209 211 210 210 212 213 214 215 215 215 216 215 214 214 215 214 214 215 215 217 219 220 221 219 216 216 219 220 219 217 217 219 219 215 215 219 222 223 224 224 226 226 226 228 228 229 229 230 232 236 238 238 236 234 237 243 245 245 245 245 245 246 248 249 249 249 251 254 256 257 258 259 262
185 186 187 189 191 194 196 197 197 198 200 201 203 206 207 209 211 213 212 212 213 214 215 216 215 216 216 215 214 216 217 216 216 216 216 218 220 222 221 218 217 219 221 220 217 218 220 220 216 214 216 217 219 221 222 222 225 227 228 227 228 229 228 230 234 236 238 237 235 237 243 244 244 244 245 245 247 248 249 249 250 251 252 254 255 257 259 261
192 193 192 192 195 198 201 203 202 201 202 203 205 207 209 209 212 215 216 214 214 215 217 218 216 215 217 216 213 214 216 217 216 216 217 218 221 222 223 224 221 220 220 218 216 218 221 222 220 220 220 220 222 224 223 221 222 225 226 225 227 228 228 230 232 234 237 239 239 240 244 247 247 245 245 246 247 249 249 249 250 251 252 253 255 257 259 261
198 198 196 195 197 201 204 206 206 205 205 204 206 209 210 211 212 214 217 217 215 216 219 220 218 218 218 217 215 215 215 215 216 217 217 218 221 222 224 227 226 223 221 220 218 218 222 224 223 224 226 226 226 226 223 221 222 224 224 224 225 226 227 228 232 234 236 239 243 243 243 248 249 247 245 247 248 250 251 250 250 250 251 252 254 256 258 260
201 200 199 198 201 203 205 207 207 208 207 206 208 210 210 212 214 214 216 220 220 218 220 221 220 220 220 218 218 218 216 216 216 217 216 217 219 222 222 224 226 224 222 222 221 221 224 225 224 225 228 228 228 227 224 224 226 226 225 224 224 225 225 228 233 236 235 238 243 244 242 245 249 248 246 247 248 249 250 249 248 248 249 251 253 255 257 259
204 204 202 202 205 205 204 206 208 209 211 210 210 212 212 214 217 218 218 221 223 222 221 223 223 222 222 220 219 220 219 218 217 217 216 216 218 221 221 223 226 224 221 221 223 224 225 225 224 224 228 230 229 229 227 227 228 228 227 226 225 225 226 228 233 236 236 239 243 244 243 244 246 247 246 246 246 246 247 247 246 246 248 251 253 254 256 257
207 209 206 206 208 208 207 208 208 210 213 213 214 215 215 217 218 220 221 221 223 224 223 225 225 223 223 223 222 223 221 219 219 218 215 216 219 221 222 224 226 225 222 221 223 224 225 226 224 223 228 230 228 229 229 228 229 229 229 228 226 226 228 229 233 235 235 238 241 243 244 246 246 246 246 245 245 245 245 246 246 247 248 250 251 253 255 257
208 210 210 210 211 211 211 211 210 212 214 214 216 216 218 220 220 221 224 223 223 224 223 224 225 224 225 225 225 225 223 221 221 220 216 216 219 221 224 226 227 226 225 224 223 223 224 226 225 224 227 228 226 227 229 229 230 230 228 226 225 225 227 229 232 234 234 236 240 242 244 246 246 245 244 245 245 245 245 245 245 246 247 248 250 252 255 257
210 212 213 213 213 214 215 214 213 214 216 216 218 219 221 223 222 223 227 225 223 223 222 222 223 224 226 226 226 226 224 223 224 223 221 220 221 221 223 225 227 228 228 225 224 224 223 225 225 224 226 229 227 226 228 230 232 231 228 224 223 225 228 231 234 235 235 236 238 240 242 245 246 244 242 243 243 244 246 246 245 246 247 249 251 252 255 257